Location: Unspecified
(48.8656°N, 0.0000°E)
Time: 21:06:02
(UTC+00:00)

Transit 2A Rocket - Pass Details

Date: 21 June 2019
Orbit: 588 x 915 km, 66.7° (Epoch: 16 July)

Event Time Altitude Azimuth Distance (km) Brightness Sun altitude
Rises 11:10:52 0° 225° (SW) 3,541 8.6 62.7°
Reaches altitude 10° 11:13:27 10° 229° (SW) 2,600 8.0 62.8°
Maximum altitude 11:19:30 63° 310° (NW) 998 6.3 63.2°
Drops below altitude 10° 11:25:19 10° 31° (NNE) 2,505 7.6 63.6°
Sets 11:27:46 0° 35° (NE) 3,402 8.2 63.7°
